[[{"header":{"parameterUnit":"m.s-1","parameterCategory":1,"la1":30.2991,"la2":30.254,"lo1":-89.0895,"lo2":-89.0444,"dy":0.0017,"dx":0.0017,"nx":28,"ny":28,"refTime":"2023-08-08T09:00:00:Z","depth":0,"parameterNumber":2,"parameterNumberName":"U-component_of_WINDS"},"data":[0,0,0,0,0,0,0,0,0,0,0,0,0,0,0,0,0,0,0,0,0,0,0,0,0,0,0,0,0,0,0,0,0,0,0,0,0,0,0,0,0,0,0,0,0,0,0,0,0,0,0,0,0,0,0,0,0,0,1.2249,1.225,0,1.2368,1.237,1.2371,1.2348,1.2345,1.2343,1.2341,1.2468,1.2473,1.2479,0,0,0,0,0,0,0,0,0,0,0,0,0,1.2002,1.2006,1.2248,1.225,1.2252,1.2368,1.237,1.2372,1.2348,1.2345,1.2343,1.234,1.2466,1.2473,1.2479,0,0,0,0,0,0,0,0,0,0,0,0,0,1.2114,1.2008,1.2248,1.2254,1.2255,1.2368,1.237,1.2372,1.2349,1.2345,1.2342,1.2339,1.2464,1.2472,1.248,1.2596,0,0,1.2505,1.2508,0,0,0,0,0,0,0,0,1.2108,1.2123,1.2251,1.2254,1.2256,1.234,1.2329,1.2447,1.2349,1.2313,1.2341,1.2337,1.2428,1.2439,1.2469,1.2602,1.2607,1.2506,1.2511,1.2514,1.2516,0,0,0,0,0,0,0,1.21,1.2118,1.2296,1.2253,1.2256,1.2251,1.2263,1.2352,1.2388,1.2316,1.2315,1.2329,1.2429,1.2461,1.2472,1.2609,1.2505,1.2513,1.2518,1.2521,1.2843,1.2846,0,0,0,0,0,0,1.209,1.2112,1.2292,1.23,1.2172,1.2258,1.2272,1.2316,1.2387,1.2394,1.2332,1.2328,1.2449,1.2462,1.2476,1.2617,1.2514,1.2522,1.2526,1.2839,1.2844,1.2848,0,0,0,0,0,0,1.2085,1.2106,1.2287,1.2205,1.2228,1.2266,1.2316,1.232,1.2352,1.2398,1.2405,1.2358,1.2447,1.2465,1.2566,1.2621,1.2525,1.2533,1.2835,1.2841,1.2846,1.2899,0,0,0,0,0,0,1.2078,1.2105,1.2148,1.2206,1.2232,1.2375,1.2319,1.2325,1.2366,1.2362,1.2425,1.2432,1.2446,1.2554,1.2574,1.263,1.2539,1.283,1.2837,1.2844,1.2892,1.2905,1.2916,0,0,0,0,0,1.2069,1.216,1.2151,1.2173,1.2288,1.2378,1.2393,1.2405,1.2371,1.2416,1.2445,1.243,1.2611,1.2565,1.2587,1.2646,1.2827,1.2835,1.2843,1.2887,1.2903,1.2916,0,0,0,0,0,0,1.2109,1.2167,1.2158,1.227,1.2319,1.2374,1.2431,1.2422,1.2483,1.2476,1.249,1.2504,1.2608,1.2637,1.2584,1.2762,1.2714,1.2727,1.2739,1.2755,1.2767,1.2759,1.2546,0,0,0,0,0,1.213,1.2197,1.2245,1.2339,1.2364,1.2393,1.2433,1.2438,1.249,1.2511,1.2547,1.2599,1.2667,1.2713,1.2778,1.2895,1.2909,1.2947,1.2959,1.2969,1.2981,1.3046,1.3063,1.2875,1.2875,1.2875,0,0,1.2176,1.2216,1.2258,1.2348,1.2387,1.2457,1.2411,1.2487,1.254,1.2523,1.262,1.2649,1.2708,1.2817,1.2868,1.2845,1.3036,1.298,1.2987,1.2994,1.3056,1.3074,1.309,1.288,1.2879,1.2879,0,0,1.2296,1.2332,1.2415,1.2454,1.2512,1.253,1.255,1.2606,1.2624,1.2721,1.271,1.2773,1.289,1.2932,1.2969,1.3102,1.3092,1.3123,1.3188,1.325,1.3265,1.3278,1.3327,1.3344,1.3135,1.3135,1.3135,0,1.2346,1.245,1.2459,1.2536,1.2576,1.2561,1.2645,1.2683,1.276,1.2789,1.2762,1.2908,1.2947,1.3066,1.3098,1.3128,1.3152,1.3117,1.3262,1.3275,1.3288,1.3335,1.3353,1.3138,1.3138,1.3137,1.3137,0,1.2509,1.2581,1.2641,1.2714,1.2761,1.2841,1.2862,1.2909,1.2909,1.293,1.303,1.3075,1.315,1.3178,1.318,1.3298,1.3282,1.3258,1.3211,1.3309,1.3353,1.3371,1.3143,1.3142,1.3141,1.314,0,0,1.266,1.2735,1.2757,1.279,1.2852,1.2908,1.2987,1.3058,1.3098,1.3151,1.3219,1.3318,1.3296,1.3338,1.3344,1.3398,1.3502,1.3368,1.337,1.3393,1.3636,1.3654,1.3675,1.3494,1.3497,1.35,1.3631,0,1.2786,1.2925,1.2934,1.306,1.3127,1.3114,1.3183,1.3229,1.325,1.3311,1.3335,1.3405,1.3371,1.3396,1.3449,1.3478,1.3551,1.3468,1.3559,1.3562,1.3546,1.3698,1.3718,1.384,1.3648,1.3651,1.3653,0,1.2952,1.3009,1.3141,1.3193,1.3222,1.3284,1.3349,1.3407,1.3459,1.347,1.3516,1.3514,1.3596,1.3544,1.3658,1.3601,1.3638,1.3658,1.3663,1.3674,1.3615,1.3714,1.3879,1.3897,1.368,1.3678,1.3676,0,1.305,1.3159,1.3253,1.3281,1.3343,1.3387,1.3416,1.3464,1.3506,1.3563,1.359,1.3657,1.3694,1.3746,1.3762,1.3722,1.3876,1.3825,1.3889,1.3889,1.3924,1.3922,1.4099,1.3945,1.3945,1.3945,1.3944,0,1.3191,1.3273,1.3297,1.3355,1.3446,1.3456,1.3546,1.3572,1.3615,1.3678,1.3669,1.3729,1.3746,1.3809,1.3822,1.3915,1.3931,1.3944,1.3947,1.3946,1.3945,1.3972,1.3965,1.395,1.3948,1.3948,1.3947,0,1.3317,1.3336,1.3437,1.3487,1.3502,1.3567,1.361,1.3666,1.3685,1.3765,1.3784,1.3815,1.3889,1.3909,1.3998,1.4006,1.4116,1.411,1.4099,1.4099,1.4163,1.4157,1.4365,1.4393,1.422,1.4221,1.4222,0,1.3407,1.3469,1.3525,1.3566,1.3596,1.3662,1.3704,1.3715,1.376,1.3822,1.3871,1.3942,1.4001,1.4119,1.415,1.4218,1.4214,1.4282,1.4225,1.4222,1.4217,1.4214,1.4221,1.4294,1.4296,1.4298,1.4299,0,1.3564,1.357,1.3631,1.3694,1.3744,1.3795,1.3844,1.3878,1.3897,1.3947,1.4021,1.4066,1.4155,1.4227,1.4295,1.4325,1.4316,1.4316,1.4335,1.4336,1.4327,1.4334,1.413,1.4312,1.4311,1.431,1.4309,1.4309,1.3676,1.3731,1.3778,1.3846,1.3883,1.3929,1.3983,1.4009,1.407,1.4143,1.4146,1.4226,1.4276,1.4366,1.4399,1.4463,1.4443,1.447,1.4477,1.4484,1.449,1.4314,1.4475,1.4475,1.4475,1.4474,1.4474,0,1.3834,1.3864,1.3925,1.3993,1.4046,1.403,1.4083,1.4129,1.42,1.4246,1.4302,1.4387,1.4457,1.4492,1.4561,1.4606,1.4603,1.4623,1.4621,1.4629,1.4504,1.4481,1.4624,1.4624,1.4624,1.4624,1.4624,1.4624,1.3923,1.4015,1.4026,1.4137,1.4166,1.4243,1.4275,1.4317,1.4354,1.4449,1.4506,1.4528,1.457,1.4642,1.4705,1.4713,1.474,1.4763,1.477,1.4653,1.4637,1.4623,1.4602,1.4768,1.4768,1.489,1.4891,1.4892]},{"header":{"parameterUnit":"m.s-1","parameterCategory":1,"la1":30.2991,"la2":30.254,"lo1":-89.0895,"lo2":-89.0444,"dy":0.0017,"dx":0.0017,"nx":28,"ny":28,"refTime":"2023-08-08T09:00:00:Z","depth":0,"parameterNumber":3,"parameterNumberName":"V-component_of_WINDS"},"data":[0,0,0,0,0,0,0,0,0,0,0,0,0,0,0,0,0,0,0,0,0,0,0,0,0,0,0,0,0,0,0,0,0,0,0,0,0,0,0,0,0,0,0,0,0,0,0,0,0,0,0,0,0,0,0,0,0,0,6.5501,6.5501,0,6.5512,6.5512,6.5512,6.544,6.5438,6.5436,6.5434,6.5444,6.5446,6.5448,0,0,0,0,0,0,0,0,0,0,0,0,0,6.5415,6.5417,6.5501,6.5501,6.5501,6.5512,6.5512,6.5512,6.544,6.5438,6.5435,6.5433,6.5443,6.5446,6.5449,0,0,0,0,0,0,0,0,0,0,0,0,0,6.5442,6.5417,6.5501,6.5467,6.5464,6.5512,6.5512,6.5512,6.5441,6.5438,6.5435,6.5432,6.5443,6.5446,6.5449,6.5531,0,0,6.5459,6.546,0,0,0,0,0,0,0,0,6.544,6.5445,6.5471,6.5469,6.5466,6.5472,6.5485,6.5518,6.5442,6.5449,6.5434,6.543,6.5456,6.5458,6.5466,6.5531,6.5531,6.5459,6.5461,6.5463,6.5464,0,0,0,0,0,0,0,6.5438,6.5444,6.5505,6.5472,6.5468,6.545,6.545,6.5491,6.547,6.5449,6.5443,6.5446,6.5454,6.5464,6.5466,6.5532,6.5459,6.5462,6.5464,6.5465,6.5662,6.5665,0,0,0,0,0,0,6.5441,6.5443,6.5505,6.5506,6.5445,6.5454,6.5454,6.5473,6.5469,6.5465,6.5448,6.5442,6.5459,6.5462,6.5466,6.556,6.5463,6.5466,6.5468,6.5658,6.5662,6.5666,0,0,0,0,0,0,6.544,6.5448,6.5504,6.5473,6.5479,6.5459,6.548,6.5475,6.5484,6.5469,6.5464,6.5463,6.5457,6.5462,6.5515,6.5559,6.5467,6.547,6.5655,6.566,6.5664,6.5749,0,0,0,0,0,0,6.5438,6.5448,6.5479,6.5474,6.5481,6.5554,6.5483,6.5477,6.549,6.5483,6.5481,6.5478,6.5455,6.551,6.5518,6.5562,6.5473,6.5651,6.5657,6.5663,6.5742,6.5757,6.5769,0,0,0,0,0,6.5435,6.5503,6.5481,6.5489,6.552,6.5556,6.556,6.5533,6.5494,6.5525,6.5515,6.5478,6.5554,6.5516,6.5524,6.557,6.5648,6.5655,6.5662,6.5737,6.5754,6.5768,0,0,0,0,0,0,6.5513,6.5501,6.5477,6.5546,6.5553,6.5544,6.5582,6.5552,6.557,6.5562,6.5527,6.5527,6.5586,6.5583,6.5542,6.5648,6.5594,6.5603,6.5647,6.5664,6.5677,6.5675,6.5475,0,0,0,0,0,6.5538,6.557,6.5558,6.5619,6.5624,6.5603,6.5618,6.5596,6.5602,6.5604,6.5598,6.5604,6.5629,6.5646,6.5669,6.5742,6.574,6.5777,6.5791,6.5801,6.581,6.5847,6.5863,6.569,6.569,6.569,0,0,6.5591,6.5588,6.561,6.5635,6.5638,6.567,6.5606,6.5643,6.5666,6.561,6.5659,6.5655,6.566,6.5723,6.575,6.5723,6.5857,6.5811,6.582,6.5822,6.5856,6.5872,6.5887,6.5695,6.5694,6.5693,0,0,6.5702,6.5705,6.5755,6.5759,6.5764,6.5749,6.5762,6.5758,6.5753,6.5802,6.5759,6.5787,6.5831,6.5835,6.5844,6.5956,6.5922,6.5965,6.6033,6.6069,6.6083,6.6095,6.6133,6.6148,6.5973,6.5973,6.5973,0,6.5767,6.5814,6.5785,6.5825,6.5836,6.5786,6.5836,6.5842,6.5854,6.5862,6.5831,6.5885,6.5885,6.5948,6.5975,6.5984,6.5996,6.5964,6.6083,6.6095,6.6105,6.6142,6.6157,6.5978,6.5978,6.5977,6.5977,0,6.5892,6.5926,6.5966,6.5979,6.5995,6.604,6.6016,6.6036,6.6013,6.6001,6.6051,6.6049,6.6069,6.6083,6.6061,6.6142,6.6125,6.6089,6.6034,6.6127,6.6161,6.6175,6.5985,6.5984,6.5982,6.5981,0,0,6.6054,6.6049,6.6064,6.6068,6.607,6.6095,6.6137,6.6157,6.6174,6.6184,6.6218,6.6256,6.6223,6.6232,6.621,6.6242,6.633,6.6202,6.6202,6.6225,6.6418,6.6444,6.6461,6.6308,6.631,6.6312,6.6417,0,6.6162,6.6234,6.6207,6.6281,6.6311,6.6263,6.63,6.6304,6.6295,6.6318,6.6307,6.6334,6.6289,6.6294,6.6324,6.6313,6.6368,6.6305,6.6338,6.6339,6.6337,6.6478,6.6506,6.6605,6.643,6.6432,6.6434,0,6.6297,6.6312,6.6389,6.6384,6.6395,6.6429,6.6444,6.6467,6.6471,6.6461,6.6472,6.6442,6.6482,6.6428,6.6482,6.644,6.6451,6.6448,6.6451,6.6452,6.6391,6.6482,6.6636,6.665,6.6455,6.6453,6.6452,0,6.6406,6.6445,6.6495,6.6501,6.6497,6.6521,6.652,6.6521,6.6534,6.6548,6.6555,6.6574,6.6583,6.6598,6.6574,6.6537,6.6631,6.6575,6.6623,6.6624,6.6644,6.6643,6.6801,6.6654,6.6654,6.6654,6.6654,0,6.6528,6.6577,6.6543,6.6574,6.6626,6.6596,6.6648,6.6642,6.6643,6.6671,6.6632,6.6659,6.6626,6.665,6.6632,6.6678,6.6683,6.6676,6.667,6.6679,6.668,6.6685,6.6677,6.6658,6.6657,6.6656,6.6655,0,6.6658,6.6638,6.6689,6.6681,6.668,6.6718,6.6711,6.6738,6.6726,6.6762,6.6768,6.6748,6.6774,6.6752,6.6777,6.6765,6.6826,6.6812,6.6825,6.6821,6.687,6.6865,6.7036,6.7056,6.6898,6.6899,6.6901,0,6.6737,6.6773,6.6768,6.6784,6.6785,6.6812,6.6825,6.6796,6.6811,6.6817,6.6844,6.6866,6.6883,6.6926,6.6914,6.6933,6.6917,6.6976,6.692,6.6927,6.6916,6.6914,6.6917,6.6987,6.6989,6.699,6.6991,0,6.6879,6.6867,6.6887,6.6904,6.6921,6.6933,6.6941,6.6957,6.6926,6.6945,6.6971,6.6984,6.7009,6.7032,6.7047,6.7045,6.7013,6.7009,6.7021,6.703,6.7035,6.7032,6.6855,6.7005,6.7004,6.7003,6.7002,6.7001,6.6984,6.7013,6.7014,6.7038,6.7041,6.705,6.7075,6.7065,6.7086,6.7104,6.7086,6.7117,6.7118,6.7135,6.7137,6.7161,6.7136,6.7154,6.7158,6.7163,6.7169,6.7033,6.7163,6.7163,6.7162,6.7162,6.7162,0,6.7123,6.7121,6.7143,6.7156,6.7174,6.7143,6.715,6.7168,6.7196,6.72,6.7217,6.7246,6.7267,6.7256,6.7275,6.7295,6.7281,6.7301,6.7299,6.7299,6.7191,6.7178,6.7312,6.7312,6.7312,6.7312,6.7312,6.7312,6.7197,6.7244,6.7232,6.728,6.7277,6.7307,6.7314,6.7321,6.7324,6.7358,6.7376,6.7368,6.7366,6.7384,6.7402,6.7398,6.7406,6.7431,6.7422,6.7321,6.7306,6.7292,6.728,6.7434,6.7434,6.7528,6.7529,6.7529]}]]